sat.trackr.live / text

‹ back to catalog

STARLINK-1166

NORAD 45060 · 2020-006S

PAYLOAD ACTIVE UNKNOWN

§ Identity

Operator
Country
US
Launch date
2020-01-29
Launch site
AFETR
Launch vehicle
Mass (kg)
RCS (m²)

Purposes: comms

External: N2YO · Heavens-Above · Gunter

§ Orbital elements

Epoch: 2026-09-14T21:27:43.030656Z

Period
91.24 min
Inclination
53.0371°
Eccentricity
0.0002677
Mean motion
15.78265580 rev/d
Perigee alt
333.6 km
Apogee alt
337.2 km
Semi-major
6,713.5 km
B*
5.8047e-4
RAAN
68.7594°
Arg perigee
283.2612°
Mean anomaly
76.8110°
Rev number
36,622

§ Raw data

STARLINK-11661 45060U 20006S   26257.89424804  .00102324  00000+0  58047-3 0  99922 45060  53.0371  68.7594 0002677 283.2612  76.8110 15.78265580366220

JSON: /api/v1/satellites/45060 · /tle

For live sub-satellite position, see the globe view (requires WebGL).

§ Visibility from observer

Set your observer location to see the next 7 days of passes ≥ 10°. The values pass through the URL so the page stays shareable.

No JS? Fill the form by hand. The geolocation button needs JavaScript.